Regional Weather Roundup
Issued by NWS Upton, NY

Current Version | Previous Version | Graphics & Text | Print | Product List | Glossary Off
Versions: 1 2 3 4 5 6 7 8 9 10 11 12 13 14 15 16 17 18 19 20 21 22 23 24 25 26 27

000
ASUS41 KOKX 270608
RWROKX

REGIONAL WEATHER ROUNDUP
NATIONAL WEATHER SERVICE NEW YORK NY
100 AM EST MON FEB 27 2017

NOTE: "FAIR" INDICATES FEW OR NO CLOUDS BELOW 12,000 FEET WITH NO
SIGNIFICANT WEATHER AND/OR OBSTRUCTIONS TO VISIBILITY.

NYZ071-072-176-178-NJZ106-104-270700-
NEW YORK CITY METRO AREA

CITY           SKY/WX    TMP DP  RH WIND       PRES   REMARKS
Central Park   CLEAR     35  16  45 VRB3      30.31R
Wall St Helipt NOT AVBL
LaGuardia APRT CLEAR     39  15  37 W8        30.29R WCI  33
Kennedy INTL   CLEAR     36  19  50 W8        30.31R WCI  30
Breezy Point     N/A     36 N/A N/A W9G16       N/A  WCI  29
Newark/Liberty CLEAR     33  18  53 S3        30.29R
Teterboro      CLEAR     33  18  53 S5        30.28R WCI  29
$$

NYZ177-179-078>081-270700-
LONG ISLAND NEW YORK

CITY           SKY/WX    TMP DP  RH WIND       PRES   REMARKS
Jones Beach      N/A     36 N/A N/A W8          N/A  WCI  29
Matinecock PT  NOT AVBL
Farmingdale    CLEAR     33  18  53 SW5       30.29R WCI  29
MacArthur/ISP  CLEAR     28  19  69 W5        30.28R WCI  23
Shirley        CLEAR     26  18  71 CALM      30.30R
Westhampton    CLEAR     21  14  74 CALM      30.30R
Southampton    NOT AVBL
Bridgehampton  NOT AVBL
East Hampton     N/A     24  17  75 CALM      30.28R
Montauk          N/A     37  21  52 W9        30.28R WCI  30
$$

NYZ052-065-067-270700-
HUDSON VALLEY

CITY           SKY/WX    TMP DP  RH WIND       PRES   REMARKS
White Plains   CLEAR     32  15  49 W5        30.25R WCI  27
Newburgh       CLEAR     28  19  69 W5        30.25R WCI  23
Montgomery     CLEAR     26  19  74 CALM      30.24R
Poughkeepsie   CLEAR     24  18  77 CALM      30.25R
Albany         MOCLDY    29  20  69 S8        30.21R WCI  21
$$

NJZ001-105-106-008-010-013-015-019>022-104-270700-
NEW JERSEY

CITY           SKY/WX    TMP DP  RH WIND       PRES   REMARKS
Newark/Liberty CLEAR     33  18  53 S3        30.29R
Teterboro      CLEAR     33  18  53 S5        30.28R WCI  29
Caldwell       CLEAR     32  16  51 CALM      30.29R
Somerville     CLEAR     25  19  78 CALM      30.27S
Linden         NOT AVBL
Sussex         CLEAR     24  20  84 CALM      30.24S
Andover          N/A     26  19  74 CALM      30.25S
Trenton        CLEAR     28  18  66 CALM      30.29R
Millville      PTCLDY    23  20  88 CALM      30.33R
Atlantic City  CLEAR     29  18  63 CALM      30.33R
Wrightstown    CLEAR     26  19  74 CALM      30.29R
Toms River     CLEAR     21  17  84 CALM      30.33R
Belmar         CLEAR     31  19  61 S8        30.32R WCI  23
$$

PAZ047>061-062-071-270700-
EASTERN PENNSYLVANIA

CITY           SKY/WX    TMP DP  RH WIND       PRES   REMARKS
Philadelphia   CLEAR     33  19  56 CALM      30.32R
Allentown      CLEAR     28  17  63 SW6       30.27R WCI  22
Scranton       CLEAR     30  17  58 CALM      30.22R
$$

CTZ002-004>006-009-010-012-RIZ004-006-007-MAZ004-011-015-270700-
SOUTHERN NEW ENGLAND
 IN CT

CITY           SKY/WX    TMP DP  RH WIND       PRES   REMARKS
Bradley INTL   PTCLDY    27  18  69 S6        30.24R WCI  20
Hartford       PTCLDY    29  20  69 S6        30.25R WCI  23
Danbury        CLEAR     27  16  63 W6        30.26R WCI  20
Wtrbury/Oxford CLEAR     28  12  50 W6        30.24R WCI  22
Bridgeport     CLEAR     34  19  54 W5        30.27R WCI  30
Meriden        PTCLDY    25  18  74 CALM      30.26R
New Haven      CLEAR     34  18  52 VRB3      30.27R
Chester          N/A     30  16  55 W5        30.25R WCI  25
Groton         CLEAR     32  18  56 W7        30.27R WCI  26
Wilimantic     PTCLDY    27  21  78 CALM      30.25R

 IN RI

CITY           SKY/WX    TMP DP  RH WIND       PRES   REMARKS
Providence     CLEAR     28  17  63 S5        30.25R WCI  23
Block Island   CLEAR     35  19  52 W12G18    30.27R WCI  27
Westerly       CLEAR     32  17  54 W3        30.27R
 IN MA

CITY           SKY/WX    TMP DP  RH WIND       PRES   REMARKS
Boston         PTCLDY    32  18  56 SW10      30.22R WCI  24
Worcester      CLEAR     27  16  63 W14       30.16R WCI  16
Westfield      CLEAR     25  18  74 S6        30.22R WCI  18
Provincetown   CLEAR     34  21  59 W13       30.23R WCI  25
Nantucket      CLEAR     33  17  51 W12       30.25R WCI  24
$$

ANZ330-335-338-340-345-350-353-355-270700-
COASTAL MARINE OBSERVATIONS


STATION/POSITION TIME  SKY/WX   TEMP    WIND        PRES    VSBY  WAVE
                                AIR SEA DIR/SP/G                  HT/PER
                 (UTC)          (F)     (DEG/KT/KT) (MB)    (MI)  (FT/S)
NY HARB ENTRANCE 0450            38 42  270/ 14/ 16 1025.2          2/10
20 S FIRE ISLAND 0450            40 43  290/ 16/ 17 1025.1          4/10
GREAT SOUTH BAY  NOT AVBL
23 SSW MONTAUK P 0450            38 44              1025.0          4/ 9
15 E BARNEGAT LI 0530               44                N/A           3/10
HUDSON CANYON    0450               47              1025.6          6/ 7
KINGS POINT      0548            37 40              1025.5
EXECUTION ROCKS  NOT AVBL
CENTRAL LI SOUND 0530            37     260/ 16/ 17   N/A           2/ 4
EASTERN LI SOUND NOT AVBL
ROBBINS REEF     0548            35     250/  9/ 11 1026.1
$$


>>>>>>>>>>>>>>>>>>>>>>>>>>>> KEY <<<<<<<<<<<<<<<<<<<<<<<<<<<
>                                                          <
>     SKY/WX - Sky Condition/Present Weather               <
>     TMP    - Temperature in Fahrenheit                   <
>     DP     - Dew Point in Fahrenheit                     <
>     RH     - Relative Humidity in Percent                <
>     WIND   - Direction (from) and Speed in MPH           <
>     PRES   - Mean Sea Level Pressure (inches of Hg)      <
>     WCI    - Wind Chill Index                            <
>     VSB    - VISIBILITY IN MILES                         <
>     HX     - HEAT INDEX                                  <
>     TC     - TEMPERATURE IN CELSIUS                      <
>     VRB    - VARIABLE WIND DIRECTION                     <
>                                                          <
>>>>>>>>>>>>>>>>>>>>>>>>>>>> KEY <<<<<<<<<<<<<<<<<<<<<<<<<<<




USA.gov is the U.S. government's official web portal to all federal, state and local government web resources and services.